This is the latest recevied weather packets stored in our database for station/object IZ5MMH-4. If no packets are shown the sender has not sent any weather packets the latest 10 day(s).
| Time | Temp. | Humidity | Pressure | Rain* | Wind** | Luminosity | Snow |
|---|---|---|---|---|---|---|---|
| 1787991863 | 30° C | 53% | 1017.2 hPa | - | - | - | - |
| 1787991263 | 29.44° C | 52% | 1017.1 hPa | - | - | - | - |
| 1787990663 | 29.44° C | 53% | 1017.3 hPa | - | - | - | - |
| 1787990064 | 29.44° C | 53% | 1017.2 hPa | - | - | - | - |
| 1787989463 | 28.89° C | 55% | 1017.2 hPa | - | - | - | - |
| 1787988881 | 28.89° C | 57% | 1017 hPa | - | - | - | - |
| 1787988264 | 28.89° C | 54% | 1017.1 hPa | - | - | - | - |
| 1787987664 | 28.89° C | 58% | 1017 hPa | - | - | - | - |
| 1787987063 | 28.89° C | 60% | 1017 hPa | - | - | - | - |
| 1787986463 | 28.89° C | 62% | 1017.1 hPa | - | - | - | - |
| 1787985863 | 28.89° C | 62% | 1017.1 hPa | - | - | - | - |
| 1787985265 | 28.89° C | 62% | 1016.9 hPa | - | - | - | - |
| 1787984664 | 28.33° C | 60% | 1016.9 hPa | - | - | - | - |
| 1787984064 | 28.33° C | 63% | 1016.9 hPa | - | - | - | - |
| 1787983466 | 28.33° C | 63% | 1016.7 hPa | - | - | - | - |
| 1787982863 | 28.33° C | 64% | 1016.8 hPa | - | - | - | - |
| 1787982264 | 28.33° C | 62% | 1016.6 hPa | - | - | - | - |
| 1787981663 | 28.33° C | 61% | 1016.8 hPa | - | - | - | - |
| 1787981064 | 28.33° C | 61% | 1016.8 hPa | - | - | - | - |
| 1787980463 | 28.33° C | 63% | 1016.9 hPa | - | - | - | - |
| 1787979863 | 28.33° C | 65% | 1016.9 hPa | - | - | - | - |
| 1787979264 | 28.33° C | 66% | 1017 hPa | - | - | - | - |
| 1787978663 | 28.33° C | 66% | 1017.1 hPa | - | - | - | - |
| 1787978064 | 28.33° C | 66% | 1017.3 hPa | - | - | - | - |
| 1787977464 | 28.33° C | 66% | 1017.1 hPa | - | - | - | - |
* Rain since midnight (hover to see other rain measurements)
** Current wind speed in m/s (hover to see current wind gust speed)